FW1389 Weather Reports


time (UTC)temp
C
wind
direction
speed
KPH
gust
KPH
rain 1hr
cm
rain 24hr
cm
rain mn
cm
humidity
%
barometer
mb
20260507014642 11 82 0.0 0.0 0.00 0.18 0.00 92 1011.8
20260507013041 11 82 0.0 0.0 0.00 0.18 0.00 92 1011.9
20260507011540 11 82 0.0 0.0 0.00 0.18 0.00 91 1012.1
20260507010055 11 82 0.0 0.0 0.00 0.18 0.00 91 1012.2
20260507004536 12 82 0.0 0.0 0.00 0.18 0.00 91 1012.3
20260507003034 12 82 0.0 1.6 0.00 0.18 0.00 90 1012.3
20260507001533 12 82 0.0 1.6 0.00 0.18 0.00 90 1012.5
20260507000031 12 82 0.0 0.0 0.00 0.18 0.00 89 1012.5
20260506234531 12 82 0.0 0.0 0.00 0.18 0.00 89 1012.6
20260506233028 12 82 0.0 0.0 0.00 0.18 0.00 89 1012.6
20260506231526 12 82 0.0 1.6 0.00 0.18 0.00 89 1012.8
20260506230028 12 82 0.0 1.6 0.00 0.18 0.00 89 1012.7
20260506224523 12 82 0.0 1.6 0.00 0.18 0.00 88 1012.9
20260506223021 12 82 0.0 1.6 0.00 0.18 0.00 88 1013.1
20260506221519 12 82 0.0 0.0 0.00 0.18 0.00 88 1013.2
20260506220133 12 82 0.0 1.6 0.00 0.18 0.00 88 1013.5
20260506214538 12 80 0.0 1.6 0.00 0.18 0.18 88 1013.5
20260506213038 12 80 0.0 3.2 0.00 0.18 0.18 88 1013.5
20260506211536 12 80 0.0 3.2 0.00 0.18 0.18 88 1013.6
20260506210035 12 79 0.0 1.6 0.00 0.18 0.18 87 1013.6
20260506204536 12 72 0.0 3.2 0.00 0.18 0.18 86 1013.5
20260506203033 13 73 0.0 1.6 0.00 0.18 0.18 86 1013.4
20260506201538 13 73 0.0 3.2 0.00 0.18 0.18 84 1013.2
20260506200031 13 72 0.0 1.6 0.00 0.18 0.18 83 1013.2
20260506194531 13 72 0.0 4.8 0.00 0.18 0.18 82 1013.3
20260506193031 13 69 0.0 1.6 0.00 0.18 0.18 83 1013.5
20260506191530 13 67 1.6 6.4 0.00 0.18 0.18 83 1013.5
20260506190031 13 85 0.0 1.6 0.00 0.18 0.18 83 1013.4
20260506184532 14 79 1.6 4.8 0.00 0.18 0.18 83 1013.3
20260506183026 14 78 0.0 6.4 0.00 0.18 0.18 82 1013.4
20260506181526 14 78 1.6 6.4 0.00 0.18 0.18 80 1013.5
20260506180031 15 85 1.6 4.8 0.00 0.18 0.18 79 1013.6
20260506174528 15 174 0.0 4.8 0.00 0.18 0.18 80 1013.6
20260506173024 13 42 0.0 8.0 0.00 0.18 0.18 83 1013.6
20260506171534 13 42 1.6 8.0 0.00 0.18 0.18 83 1013.7
20260506170020 14 38 3.2 9.7 0.00 0.18 0.18 82 1013.7
20260506164523 14 38 1.6 6.4 0.00 0.18 0.18 80 1013.9
20260506163019 14 38 0.0 4.8 0.00 0.18 0.18 78 1013.8
20260506161518 14 37 3.2 9.7 0.00 0.18 0.18 79 1013.8
20260506160020 13 355 1.6 12.9 0.00 0.18 0.18 80 1013.8
20260506154519 14 13 3.2 6.4 0.00 0.18 0.18 82 1013.9
20260506153015 14 344 4.8 12.9 0.00 0.18 0.18 82 1013.9
20260506151521 14 44 3.2 9.7 0.00 0.18 0.18 77 1014.0
20260506150013 15 57 3.2 8.0 0.00 0.18 0.18 76 1014.2
20260506144511 15 24 3.2 9.7 0.00 0.18 0.18 77 1014.2
20260506143011 15 22 3.2 9.7 0.00 0.18 0.18 78 1014.4
20260506141510 15 40 3.2 9.7 0.00 0.18 0.18 76 1014.3
20260506140017 15 33 4.8 8.0 0.00 0.18 0.18 77 1014.7
20260506134510 15 343 3.2 11.3 0.00 0.18 0.18 78 1014.6
20260506133012 15 25 3.2 8.0 0.00 0.18 0.18 74 1014.8
20260506131507 15 19 0.0 6.4 0.00 0.18 0.18 77 1014.8
20260506130004 15 17 0.0 3.2 0.00 0.18 0.18 79 1014.9
20260506124505 15 24 1.6 6.4 0.00 0.18 0.18 79 1014.9
20260506123001 15 18 1.6 4.8 0.00 0.18 0.18 78 1015.1
20260506121601 15 15 1.6 6.4 0.00 0.18 0.18 78 1015.3
20260506114556 14 22 0.0 6.4 0.00 0.20 0.18 81 1015.4
20260506113052 13 22 0.0 3.2 0.00 0.20 0.18 82 1015.5
20260506111551 13 22 1.6 8.0 0.00 0.20 0.18 83 1015.5
20260506110051 13 346 3.2 9.7 0.00 0.20 0.18 87 1015.5
20260506104555 13 24 3.2 8.0 0.00 0.20 0.18 85 1015.5
20260506103052 13 14 1.6 4.8 0.00 0.20 0.18 85 1015.6
20260506101546 13 250 0.0 3.2 0.00 0.20 0.18 87 1015.5
20260506100100 13 250 0.0 4.8 0.00 0.20 0.18 88 1015.4
20260506094542 12 250 1.6 4.8 0.00 0.20 0.18 88 1015.4
20260506093040 13 250 1.6 6.4 0.00 0.20 0.18 90 1015.3
20260506091539 12 246 0.0 4.8 0.00 0.20 0.18 91 1015.3
20260506090037 12 246 0.0 4.8 0.00 0.30 0.18 93 1015.3
20260506084540 12 248 0.0 1.6 0.00 0.30 0.18 95 1015.2
20260506083032 12 248 0.0 1.6 0.00 0.30 0.18 95 1015.2
20260506081533 11 248 0.0 1.6 0.00 0.30 0.18 96 1015.2
20260506073029 11 248 0.0 1.6 0.00 0.41 0.18 96 1015.1
20260506071526 11 248 0.0 0.0 0.00 0.41 0.18 96 1015.1
20260506061520 11 250 1.6 4.8 0.15 0.66 0.18 95 1014.8
20260506044525 11 247 1.6 6.4 0.03 0.61 0.03 94 1014.6
20260506043011 11 250 1.6 4.8 0.03 0.61 0.03 94 1014.6
20260506041511 11 249 1.6 6.4 0.03 0.61 0.03 94 1014.6
20260506040009 11 250 1.6 6.4 0.00 0.58 0.00 93 1014.8
20260506034508 11 252 1.6 6.4 0.00 0.58 0.00 94 1014.9
20260506033007 11 253 1.6 4.8 0.00 0.58 0.00 93 1015.0
20260506031516 11 252 1.6 4.8 0.00 0.58 0.00 93 1015.0
20260506030012 11 252 0.0 4.8 0.00 0.58 0.00 93 1015.0
20260506024510 11 252 0.0 3.2 0.00 0.58 0.00 93 1015.2
20260506023002 11 252 0.0 6.4 0.00 0.58 0.00 93 1015.1
20260506021502 11 250 1.6 6.4 0.00 0.58 0.00 93 1015.2
20260506020001 11 254 1.6 9.7 0.00 0.58 0.00 93 1015.3